2020-081C (46907 NORAD) Tracking and Keplerian Element Data
This shows tracking and keplerian element data for the satellite.
Feedback or suggestion? Click here.
Element | Value |
Catalog | 46907 |
Name | 2020-081C |
Epoch Orbit | 1120 |
Epoch Day | 21.00058722 |
Epoch Year | 2021 |
RAAN | 18.8875 |
Inclination | 36.905 |
Eccentricity | 0.0007591 |
Argument of Perigee | 218.1789 |
Mean Anonmoly | 141.8416 |
Mean Motion | 14.9861022 |
Decay Rate | 3.1E-07 |
L1 | 1 46907U 20081C 21021.00058722 .00000031 00000-0 88395-5 0 9999 |
L2 | 2 46907 36.9050 18.8875 0007591 218.1789 141.8416 14.98610220 11208 |
Live tracking and technical data element details for 2020-081C (NORAD 46907). 2020-081C can be tracked NOW for your location showing map with azimuth and elevation plus other details from your city location.
Track the satellite on the map from your city or location and see movement details for azimuth, elevation, latitude, longitude, range, height, and movement on the map or in text.
IsCatalogInMostPopularTable: catalog: 46907, numindb: 36
Update: records affected: 1
GetName: 46907 2020-081C
Hit Count: updated at: Fri, 22 Jan 2021 19:01:53 GMT